BURGAS current weather conditions

sailwx.info

Wind from 260 at 8 knots

Air temperature 11.0° C
Visibility: greater than 5.4 NM
Dewpoint 9.0° C
Present weather: Light rain.

Last reported at 2014-Dec-18 12:42 UTC.
Time now 2014-Dec-18 14:30 UTC

Location: N 42°29' E 027°29'.
View on Google Maps.

See reports from other nearby stations

  
Tides and Currents Weather Stations Pressure Air Temp Water Temp Dewpoint Dewpoint Depression Visibility Wind Speed Wind Dir Waves Ship Positions
date/time (UTC)wind fromknots sea level pressurealtimeterstation pressurevisibilityair tempwater tempwave heightnotes
2014-Dec-18 13:30 270 4 5.411.0
2014-Dec-18 13:00 260 7 5.411.0
2014-Dec-18 12:42 260 8 5.411.0 Light rain.
2014-Dec-18 12:30 250 10 5.411.0
2014-Dec-18 12:00 240 8 5.410.0 Light rain.
2014-Dec-18 11:30 250 5 5.410.0 Light rain.
2014-Dec-18 11:00 250 5 5.410.0 Light drizzle.
2014-Dec-18 10:30 250 7 5.4 9.0
2014-Dec-18 10:00 250 5 5.4 8.0
2014-Dec-18 09:30 250 5 3.2 8.0 Light drizzle.
2014-Dec-18 09:00 260 5 3.2 8.0
2014-Dec-18 08:30 240 7 2.7 8.0
2014-Dec-18 08:00 230 7 3.2 8.0
2014-Dec-18 07:30 230 9 3.2 8.0
2014-Dec-18 07:00 240 7 2.7 7.0 Light drizzle.
2014-Dec-18 06:30 240 5 2.4 7.0 Light rain. Mist.
2014-Dec-18 06:00 230 5 2.3 7.0 Light rain. Mist.
2014-Dec-18 05:30 250 5 3.2 7.0 Light rain.
2014-Dec-18 05:00 240 7 3.8 7.0 Light rain.
2014-Dec-18 04:30 240 9 2.5 7.0 Light rain. Mist.
2014-Dec-18 04:00 240 7 2.7 7.0 Light rain.
2014-Dec-18 03:30 240 5 3.2 7.0 Drizzle.
2014-Dec-18 03:00 240 7 4.3 7.0
2014-Dec-18 02:30 240 7 3.8 7.0
2014-Dec-18 02:00 220 11 2.6 7.0 Mist.
2014-Dec-18 01:30 220 11 2.7 7.0 Mist.
2014-Dec-18 01:00 190 7 3.2 8.0
2014-Dec-18 00:30 240 5 4.9 8.0
2014-Dec-18 00:00 220 3 5.4 8.0
2014-Dec-17 23:30 250 5 3.8 8.0 Light drizzle.
2014-Dec-17 23:00 240 5 4.3 8.0
2014-Dec-17 22:30 250 7 2.7 8.0 Mist.
2014-Dec-17 22:00 230 7 2.4 8.0 Mist.
2014-Dec-17 21:30 200 3 1.4 8.0 Mist.
2014-Dec-17 21:00 260 7 1.3 8.0 Mist.
2014-Dec-17 20:30 240 5 2.4 8.0 Mist.
2014-Dec-17 20:00 250 5 2.7 8.0 Mist.
2014-Dec-17 19:30 230 7 2.7 8.0 Mist.
2014-Dec-17 19:00 250 7 2.7 8.0 Mist.
2014-Dec-17 18:30 240 7 2.2 8.0 Mist.
2014-Dec-17 18:00 210 5 2.4 8.0 Mist.
2014-Dec-17 17:30 230 5 1.6 8.0 Mist.
2014-Dec-17 17:00 240 5 2.4 9.0 Mist.
2014-Dec-17 16:30 230 7 1.5 9.0 Mist.
2014-Dec-17 16:00 270 3 0.8 8.0 Mist.
2014-Dec-17 15:30 210 5 1.1 9.0 Mist.
2014-Dec-17 15:00 220 7 0.8 9.0 Mist.
2014-Dec-17 14:30 180 5 0.3 8.0 Light rain. Fog.
2014-Dec-17 14:00 150 3 0.4 9.0 Fog.
2014-Dec-17 13:30 160 3 0.4 9.0 Light rain. Fog.
2014-Dec-17 13:00 0.510.0 Drizzle. Mist.
2014-Dec-17 12:30 1.110.0 Light rain. Mist.
2014-Dec-17 12:00 0.710.0 Rain. Mist.
2014-Dec-17 11:30 250 5 0.9 9.0 Light rain. Mist.
2014-Dec-17 11:00 270 3 1.0 8.0 Light rain. Mist.
2014-Dec-17 10:30 300 1 0.6 8.0 Mist.
2014-Dec-17 10:00 1.1 8.0 Light rain. Mist.
2014-Dec-17 09:30 1.1 8.0 Drizzle. Mist.
2014-Dec-17 09:00 220 3 2.0 8.0 Mist.
2014-Dec-17 08:30 170 5 1.2 7.0 Mist.
2014-Dec-17 08:00 210 3 1.2 7.0 Mist.
2014-Dec-17 07:30 1.3 7.0 Mist.
2014-Dec-17 07:00 190 3 1.3 7.0 Mist.
2014-Dec-17 06:30 180 5 1.1 6.0 Light rain. Mist.
2014-Dec-17 06:00 210 5 1.5 7.0 Light rain. Mist.
2014-Dec-17 05:30 230 5 2.1 7.0 Light rain. Mist.
2014-Dec-17 05:00 240 7 2.4 6.0 Light rain. Mist.
2014-Dec-17 04:30 240 9 2.2 5.0 Mist.
2014-Dec-17 04:00 230 9 1.6 5.0 Mist.
2014-Dec-17 03:30 240 9 1.6 5.0 Mist.
2014-Dec-17 03:00 220 9 1.3 5.0 Mist.
2014-Dec-17 02:30 220 7 1.1 4.0 Mist.
2014-Dec-17 02:00 220 3 1.6 3.0 Mist.
2014-Dec-17 01:30 220 7 1.1 4.0 Mist.
2014-Dec-17 01:00 1.1 4.0 Mist.
2014-Dec-17 00:30 180 5 1.6 4.0 Mist.
2014-Dec-17 00:00 170 1 1.3 4.0 Mist.
2014-Dec-16 23:30 230 3 1.0 4.0 Mist.
2014-Dec-16 23:00 0.8 4.0 Mist.
2014-Dec-16 22:30 300 3 1.0 3.0 Mist.
2014-Dec-16 22:00 1.2 4.0 Mist.
2014-Dec-16 21:30 220 5 2.0 5.0 Mist.
2014-Dec-16 21:00 200 3 1.5 5.0 Mist.
2014-Dec-16 20:30 200 5 1.6 4.0 Mist.
2014-Dec-16 20:00 220 3 1.6 4.0 Mist.
2014-Dec-16 19:30 200 3 1.6 4.0 Mist.
2014-Dec-16 19:00 1.6 4.0 Mist.
2014-Dec-16 18:30 230 1 2.2 3.0 Mist.
2014-Dec-16 18:00 230 5 2.2 3.0 Mist.
2014-Dec-16 17:30 3.2 4.0